Time,TemperatureF,DewpointF,PressureIn,WindDirection,WindDirectionDegrees,WindSpeedMPH,WindSpeedGustMPH,Humidity,HourlyPrecipIn,Conditions,Clouds,dailyrainin,SoftwareType,DateUTC
2013-01-09 00:02:00,33.0,29.0,30.24,WNW,293,0.0,0.0,85,0.00,,,0.00,,2013-01-09 06:02:00,
2013-01-09 00:12:00,33.0,29.0,30.24,WNW,293,0.0,0.0,85,0.00,,,0.00,,2013-01-09 06:12:00,
2013-01-09 00:22:00,33.0,29.0,30.26,WNW,291,0.0,0.0,84,0.00,,,0.00,,2013-01-09 06:22:00,
2013-01-09 00:32:00,32.0,28.0,30.25,WNW,291,0.0,1.0,85,0.00,,,0.00,,2013-01-09 06:32:00,
2013-01-09 00:42:00,32.0,28.0,30.25,WNW,291,0.0,1.0,85,0.00,,,0.00,,2013-01-09 06:42:00,
2013-01-09 00:52:00,32.0,28.0,30.26,WNW,291,0.0,0.0,86,0.00,,,0.00,,2013-01-09 06:52:00,
2013-01-09 01:02:00,31.0,28.0,30.27,WNW,291,0.0,0.0,87,0.00,,,0.00,,2013-01-09 07:02:00,
2013-01-09 01:12:00,31.0,28.0,30.27,WNW,291,0.0,0.0,87,0.00,,,0.00,,2013-01-09 07:12:00,
2013-01-09 01:22:00,31.0,28.0,30.27,WNW,291,0.0,0.0,87,0.00,,,0.00,,2013-01-09 07:22:00,
2013-01-09 01:32:00,30.0,27.0,30.27,WNW,291,0.0,0.0,89,0.00,,,0.00,,2013-01-09 07:32:00,
2013-01-09 01:42:00,30.0,27.0,30.27,WNW,291,0.0,0.0,89,0.00,,,0.00,,2013-01-09 07:42:00,
2013-01-09 01:52:00,30.0,27.0,30.28,WNW,290,0.0,1.0,89,0.00,,,0.00,,2013-01-09 07:52:00,
2013-01-09 02:02:00,30.0,27.0,30.28,WNW,291,0.0,0.0,90,0.00,,,0.00,,2013-01-09 08:02:00,
2013-01-09 02:12:00,30.0,27.0,30.28,WNW,291,0.0,0.0,90,0.00,,,0.00,,2013-01-09 08:12:00,
2013-01-09 02:22:00,31.0,28.0,30.30,SE,145,0.0,1.0,89,0.00,,,0.00,,2013-01-09 08:22:00,
2013-01-09 02:32:00,31.0,28.0,30.31,SSE,156,0.0,0.0,89,0.00,,,0.00,,2013-01-09 08:32:00,
2013-01-09 02:42:00,31.0,28.0,30.31,SSE,156,0.0,0.0,89,0.00,,,0.00,,2013-01-09 08:42:00,
2013-01-09 02:53:00,31.0,28.0,30.32,South,186,0.0,0.0,88,0.00,,,0.00,,2013-01-09 08:53:00,
2013-01-09 03:02:00,31.0,28.0,30.32,South,186,0.0,0.0,88,0.00,,,0.00,,2013-01-09 09:02:00,
2013-01-09 03:12:00,31.0,28.0,30.32,South,186,0.0,0.0,88,0.00,,,0.00,,2013-01-09 09:12:00,
2013-01-09 03:22:00,30.0,27.0,30.32,West,276,0.0,0.0,89,0.00,,,0.00,,2013-01-09 09:22:00,
2013-01-09 03:32:00,30.0,27.0,30.32,West,276,0.0,0.0,88,0.00,,,0.00,,2013-01-09 09:32:00,
2013-01-09 03:42:00,30.0,27.0,30.32,West,276,0.0,0.0,88,0.00,,,0.00,,2013-01-09 09:42:00,
2013-01-09 03:53:00,29.0,26.0,30.32,NW,316,0.0,2.0,89,0.00,,,0.00,,2013-01-09 09:53:00,
2013-01-09 04:02:00,30.0,27.0,30.33,NW,312,0.0,1.0,90,0.00,,,0.00,,2013-01-09 10:02:00,
2013-01-09 04:12:00,30.0,27.0,30.33,NW,312,0.0,1.0,90,0.00,,,0.00,,2013-01-09 10:12:00,
2013-01-09 04:22:00,30.0,27.0,30.34,West,263,0.0,1.0,88,0.00,,,0.00,,2013-01-09 10:22:00,
2013-01-09 04:32:00,29.0,26.0,30.34,WSW,252,0.0,1.0,88,0.00,,,0.00,,2013-01-09 10:32:00,
2013-01-09 04:42:00,29.0,26.0,30.34,WSW,252,0.0,1.0,88,0.00,,,0.00,,2013-01-09 10:42:00,
2013-01-09 04:52:00,29.0,26.0,30.34,WSW,252,0.0,0.0,88,0.00,,,0.00,,2013-01-09 10:52:00,
2013-01-09 05:02:00,29.0,26.0,30.34,WSW,252,0.0,0.0,88,0.00,,,0.00,,2013-01-09 11:02:00,
2013-01-09 05:12:00,29.0,26.0,30.34,WSW,252,0.0,0.0,88,0.00,,,0.00,,2013-01-09 11:12:00,
2013-01-09 05:22:00,29.0,26.0,30.32,WSW,252,0.0,0.0,88,0.00,,,0.00,,2013-01-09 11:22:00,
2013-01-09 05:32:00,29.0,26.0,30.32,WSW,252,0.0,0.0,88,0.00,,,0.00,,2013-01-09 11:32:00,
2013-01-09 05:42:00,29.0,26.0,30.32,WSW,252,0.0,0.0,88,0.00,,,0.00,,2013-01-09 11:42:00,
2013-01-09 05:53:00,29.0,26.0,30.32,WSW,252,0.0,0.0,88,0.00,,,0.00,,2013-01-09 11:53:00,
2013-01-09 06:03:00,29.0,26.0,30.32,WSW,252,0.0,0.0,88,0.00,,,0.00,,2013-01-09 12:03:00,
2013-01-09 06:12:00,29.0,26.0,30.32,WSW,252,0.0,0.0,88,0.00,,,0.00,,2013-01-09 12:12:00,
2013-01-09 06:23:00,29.0,26.0,30.33,WSW,252,0.0,0.0,88,0.00,,,0.00,,2013-01-09 12:23:00,
2013-01-09 06:33:00,29.0,26.0,30.35,WSW,252,0.0,0.0,88,0.00,,,0.00,,2013-01-09 12:33:00,
2013-01-09 06:43:00,29.0,26.0,30.35,WSW,252,0.0,0.0,88,0.00,,,0.00,,2013-01-09 12:43:00,
2013-01-09 06:53:00,29.0,26.0,30.35,WSW,252,0.0,0.0,88,0.00,,,0.00,,2013-01-09 12:53:00,
2013-01-09 07:02:00,29.0,26.0,30.35,WSW,252,0.0,0.0,88,0.00,,,0.00,,2013-01-09 13:02:00,
2013-01-09 07:12:00,29.0,26.0,30.35,WSW,252,0.0,0.0,88,0.00,,,0.00,,2013-01-09 13:12:00,
2013-01-09 07:23:00,29.0,26.0,30.37,WSW,252,0.0,0.0,88,0.00,,,0.00,,2013-01-09 13:23:00,
2013-01-09 07:33:00,29.0,26.0,30.38,WSW,252,0.0,0.0,88,0.00,,,0.00,,2013-01-09 13:33:00,
2013-01-09 07:42:00,29.0,26.0,30.38,WSW,252,0.0,0.0,88,0.00,,,0.00,,2013-01-09 13:42:00,
2013-01-09 07:53:00,29.0,26.0,30.39,WSW,252,0.0,0.0,88,0.00,,,0.00,,2013-01-09 13:53:00,
2013-01-09 08:03:00,29.0,26.0,30.40,WSW,252,0.0,0.0,88,0.00,,,0.00,,2013-01-09 14:03:00,
2013-01-09 08:12:00,29.0,26.0,30.41,WSW,252,0.0,0.0,88,0.00,,,0.00,,2013-01-09 14:12:00,
2013-01-09 08:22:00,29.0,26.0,30.41,WSW,252,0.0,0.0,88,0.00,,,0.00,,2013-01-09 14:22:00,
2013-01-09 08:33:00,29.0,26.0,30.42,WSW,252,0.0,0.0,88,0.00,,,0.00,,2013-01-09 14:33:00,
2013-01-09 08:43:00,29.0,26.0,30.42,WSW,252,0.0,0.0,88,0.00,,,0.00,,2013-01-09 14:43:00,
2013-01-09 08:53:00,29.0,26.0,30.42,WSW,239,0.0,1.0,90,0.00,,,0.00,,2013-01-09 14:53:00,
2013-01-09 09:03:00,29.0,26.0,30.43,WSW,239,0.0,1.0,90,0.00,,,0.00,,2013-01-09 15:03:00,
2013-01-09 09:12:00,29.0,26.0,30.43,WSW,239,0.0,1.0,90,0.00,,,0.00,,2013-01-09 15:12:00,
2013-01-09 09:22:00,30.0,27.0,30.44,West,278,0.0,0.0,89,0.00,,,0.00,,2013-01-09 15:22:00,
2013-01-09 09:33:00,30.0,27.0,30.45,WNW,300,0.0,1.0,88,0.00,,,0.00,,2013-01-09 15:33:00,
2013-01-09 09:42:00,30.0,27.0,30.45,WNW,300,0.0,1.0,88,0.00,,,0.00,,2013-01-09 15:42:00,
2013-01-09 09:53:00,31.0,28.0,30.45,WNW,295,0.0,1.0,87,0.00,,,0.00,,2013-01-09 15:53:00,
2013-01-09 10:03:00,32.0,28.0,30.46,West,267,0.0,1.0,86,0.00,,,0.00,,2013-01-09 16:03:00,
2013-01-09 10:12:00,32.0,28.0,30.46,West,267,0.0,1.0,86,0.00,,,0.00,,2013-01-09 16:12:00,
2013-01-09 10:23:00,33.0,29.0,30.45,NNW,344,0.0,2.0,86,0.00,,,0.00,,2013-01-09 16:23:00,
2013-01-09 10:33:00,34.0,30.0,30.45,WNW,295,1.0,5.0,84,0.00,,,0.00,,2013-01-09 16:33:00,
2013-01-09 10:42:00,34.0,30.0,30.45,WNW,295,1.0,5.0,84,0.00,,,0.00,,2013-01-09 16:42:00,
2013-01-09 10:53:00,36.0,31.0,30.47,NW,317,0.0,5.0,81,0.00,,,0.00,,2013-01-09 16:53:00,
2013-01-09 11:02:00,37.0,32.0,30.47,SSW,203,0.0,6.0,81,0.00,,,0.00,,2013-01-09 17:02:00,
2013-01-09 11:12:00,37.0,32.0,30.47,SSW,203,0.0,6.0,81,0.00,,,0.00,,2013-01-09 17:12:00,
2013-01-09 11:22:00,38.0,31.0,30.46,South,191,0.0,4.0,77,0.00,,,0.00,,2013-01-09 17:22:00,
2013-01-09 11:32:00,39.0,32.0,30.46,SW,218,1.0,1.0,77,0.00,,,0.00,,2013-01-09 17:32:00,
2013-01-09 11:43:00,39.0,32.0,30.46,SW,218,1.0,1.0,77,0.00,,,0.00,,2013-01-09 17:43:00,
2013-01-09 11:53:00,39.0,32.0,30.44,NW,310,0.0,1.0,76,0.00,,,0.00,,2013-01-09 17:53:00,
2013-01-09 12:03:00,40.0,32.0,30.44,NW,310,0.0,1.0,74,0.00,,,0.00,,2013-01-09 18:03:00,
2013-01-09 12:12:00,40.0,32.0,30.44,NW,310,0.0,1.0,74,0.00,,,0.00,,2013-01-09 18:12:00,
2013-01-09 12:23:00,41.0,33.0,30.42,NW,314,1.0,4.0,73,0.00,,,0.00,,2013-01-09 18:23:00,
2013-01-09 12:33:00,42.0,34.0,30.41,WNW,300,0.0,6.0,73,0.00,,,0.00,,2013-01-09 18:33:00,
2013-01-09 12:43:00,42.0,34.0,30.41,WNW,300,0.0,6.0,73,0.00,,,0.00,,2013-01-09 18:43:00,
2013-01-09 12:53:00,43.0,34.0,30.41,NW,314,0.0,2.0,71,0.00,,,0.00,,2013-01-09 18:53:00,
2013-01-09 13:03:00,44.0,35.0,30.40,NE,46,1.0,3.0,70,0.00,,,0.00,,2013-01-09 19:03:00,
2013-01-09 13:12:00,44.0,35.0,30.40,NE,46,1.0,3.0,70,0.00,,,0.00,,2013-01-09 19:12:00,
2013-01-09 13:22:00,46.0,36.0,30.40,NE,50,0.0,3.0,67,0.00,,,0.00,,2013-01-09 19:22:00,
2013-01-09 13:33:00,48.0,37.0,30.40,North,1,1.0,1.0,65,0.00,,,0.00,,2013-01-09 19:33:00,
2013-01-09 13:43:00,48.0,37.0,30.40,North,1,1.0,1.0,65,0.00,,,0.00,,2013-01-09 19:43:00,
2013-01-09 13:53:00,49.0,37.0,30.39,SE,145,0.0,2.0,62,0.00,,,0.00,,2013-01-09 19:53:00,
2013-01-09 14:02:00,50.0,38.0,30.40,SE,131,0.0,2.0,62,0.00,,,0.00,,2013-01-09 20:02:00,
2013-01-09 14:12:00,50.0,38.0,30.40,SE,131,0.0,2.0,62,0.00,,,0.00,,2013-01-09 20:12:00,
2013-01-09 14:23:00,51.0,37.0,30.39,ESE,121,0.0,1.0,59,0.00,,,0.00,,2013-01-09 20:23:00,
2013-01-09 14:33:00,52.0,36.0,30.41,SE,136,1.0,3.0,55,0.00,,,0.00,,2013-01-09 20:33:00,
2013-01-09 14:42:00,52.0,36.0,30.41,SE,136,1.0,3.0,55,0.00,,,0.00,,2013-01-09 20:42:00,
2013-01-09 14:53:00,53.0,36.0,30.40,East,92,1.0,4.0,53,0.00,,,0.00,,2013-01-09 20:53:00,
2013-01-09 15:03:00,53.0,36.0,30.41,SSE,148,1.0,4.0,52,0.00,,,0.00,,2013-01-09 21:03:00,
2013-01-09 15:12:00,53.0,36.0,30.41,SSE,148,1.0,4.0,52,0.00,,,0.00,,2013-01-09 21:12:00,
2013-01-09 15:22:00,53.0,36.0,30.41,SSE,148,1.0,4.0,52,0.00,,,0.00,,2013-01-09 21:22:00,
2013-01-09 15:33:00,54.0,37.0,30.41,ESE,107,0.0,2.0,52,0.00,,,0.00,,2013-01-09 21:33:00,
2013-01-09 15:43:00,54.0,37.0,30.41,ESE,107,0.0,2.0,52,0.00,,,0.00,,2013-01-09 21:43:00,
2013-01-09 15:53:00,53.0,35.0,30.41,SSE,148,0.0,3.0,51,0.00,,,0.00,,2013-01-09 21:53:00,
2013-01-09 16:03:00,53.0,35.0,30.40,East,82,2.0,3.0,51,0.00,,,0.00,,2013-01-09 22:03:00,
2013-01-09 16:12:00,53.0,35.0,30.40,East,82,2.0,3.0,51,0.00,,,0.00,,2013-01-09 22:12:00,
2013-01-09 16:22:00,53.0,36.0,30.40,ESE,104,0.0,3.0,53,0.00,,,0.00,,2013-01-09 22:22:00,
2013-01-09 16:33:00,52.0,36.0,30.40,ENE,68,0.0,3.0,55,0.00,,,0.00,,2013-01-09 22:33:00,
2013-01-09 16:42:00,52.0,36.0,30.40,ENE,68,0.0,3.0,55,0.00,,,0.00,,2013-01-09 22:42:00,
2013-01-09 16:52:00,51.0,36.0,30.40,East,88,0.0,2.0,57,0.00,,,0.00,,2013-01-09 22:52:00,
2013-01-09 17:02:00,50.0,37.0,30.39,ENE,75,0.0,3.0,61,0.00,,,0.00,,2013-01-09 23:02:00,
2013-01-09 17:12:00,50.0,38.0,30.39,ENE,78,0.0,1.0,64,0.00,,,0.00,,2013-01-09 23:12:00,
2013-01-09 17:22:00,50.0,38.0,30.39,ENE,78,0.0,1.0,64,0.00,,,0.00,,2013-01-09 23:22:00,
2013-01-09 17:33:00,49.0,38.0,30.39,ENE,77,0.0,1.0,65,0.00,,,0.00,,2013-01-09 23:33:00,
2013-01-09 17:43:00,49.0,38.0,30.39,ENE,77,0.0,1.0,65,0.00,,,0.00,,2013-01-09 23:43:00,
2013-01-09 17:53:00,48.0,38.0,30.38,ENE,77,0.0,1.0,67,0.00,,,0.00,,2013-01-09 23:53:00,
2013-01-09 18:03:00,47.0,37.0,30.38,ENE,77,0.0,0.0,68,0.00,,,0.00,,2013-01-10 00:03:00,
2013-01-09 18:12:00,47.0,37.0,30.38,ENE,77,0.0,0.0,68,0.00,,,0.00,,2013-01-10 00:12:00,
2013-01-09 18:22:00,46.0,36.0,30.39,ENE,78,0.0,0.0,69,0.00,,,0.00,,2013-01-10 00:22:00,
2013-01-09 18:32:00,46.0,36.0,30.39,ENE,77,0.0,0.0,69,0.00,,,0.00,,2013-01-10 00:32:00,
2013-01-09 18:42:00,46.0,36.0,30.39,ENE,77,0.0,0.0,69,0.00,,,0.00,,2013-01-10 00:42:00,
2013-01-09 18:53:00,46.0,37.0,30.39,ENE,78,0.0,0.0,70,0.00,,,0.00,,2013-01-10 00:53:00,
2013-01-09 19:02:00,45.0,37.0,30.38,ENE,78,0.0,0.0,72,0.00,,,0.00,,2013-01-10 01:02:00,
2013-01-09 19:12:00,45.0,37.0,30.38,ENE,78,0.0,0.0,72,0.00,,,0.00,,2013-01-10 01:12:00,
2013-01-09 19:22:00,44.0,36.0,30.38,ENE,78,0.0,0.0,74,0.00,,,0.00,,2013-01-10 01:22:00,
2013-01-09 19:32:00,43.0,36.0,30.37,ENE,77,0.0,0.0,76,0.00,,,0.00,,2013-01-10 01:32:00,
2013-01-09 19:42:00,43.0,36.0,30.37,ENE,77,0.0,0.0,76,0.00,,,0.00,,2013-01-10 01:42:00,
2013-01-09 19:53:00,42.0,35.0,30.37,ENE,77,0.0,0.0,77,0.00,,,0.00,,2013-01-10 01:53:00,
2013-01-09 20:02:00,42.0,36.0,30.37,ENE,78,0.0,1.0,78,0.00,,,0.00,,2013-01-10 02:02:00,
2013-01-09 20:12:00,42.0,36.0,30.37,ENE,78,0.0,1.0,78,0.00,,,0.00,,2013-01-10 02:12:00,
2013-01-09 20:22:00,42.0,36.0,30.37,ENE,77,0.0,0.0,79,0.00,,,0.00,,2013-01-10 02:22:00,
2013-01-09 20:32:00,41.0,35.0,30.36,ENE,77,0.0,0.0,80,0.00,,,0.00,,2013-01-10 02:32:00,
2013-01-09 20:42:00,41.0,35.0,30.36,ENE,77,0.0,0.0,80,0.00,,,0.00,,2013-01-10 02:42:00,
2013-01-09 20:52:00,41.0,35.0,30.36,ENE,77,0.0,0.0,80,0.00,,,0.00,,2013-01-10 02:52:00,
2013-01-09 21:02:00,40.0,35.0,30.36,ENE,77,0.0,1.0,82,0.00,,,0.00,,2013-01-10 03:02:00,
2013-01-09 21:12:00,40.0,35.0,30.36,ENE,77,0.0,1.0,82,0.00,,,0.00,,2013-01-10 03:12:00,
2013-01-09 21:22:00,40.0,35.0,30.37,ESE,104,0.0,1.0,82,0.00,,,0.00,,2013-01-10 03:22:00,
2013-01-09 21:32:00,40.0,35.0,30.37,East,82,1.0,1.0,82,0.00,,,0.00,,2013-01-10 03:32:00,
2013-01-09 21:42:00,40.0,35.0,30.37,East,82,1.0,1.0,82,0.00,,,0.00,,2013-01-10 03:42:00,
2013-01-09 21:52:00,40.0,35.0,30.37,East,82,0.0,1.0,82,0.00,,,0.00,,2013-01-10 03:52:00,
2013-01-09 22:02:00,40.0,35.0,30.36,East,82,0.0,1.0,82,0.00,,,0.00,,2013-01-10 04:02:00,
2013-01-09 22:12:00,40.0,35.0,30.36,East,82,0.0,1.0,82,0.00,,,0.00,,2013-01-10 04:12:00,
2013-01-09 22:22:00,39.0,34.0,30.36,East,82,0.0,0.0,83,0.00,,,0.00,,2013-01-10 04:22:00,
2013-01-09 22:32:00,39.0,34.0,30.35,ENE,77,1.0,3.0,82,0.00,,,0.00,,2013-01-10 04:32:00,
2013-01-09 22:42:00,39.0,34.0,30.35,ENE,77,1.0,3.0,82,0.00,,,0.00,,2013-01-10 04:42:00,
2013-01-09 22:52:00,39.0,34.0,30.35,ENE,77,1.0,3.0,81,0.00,,,0.00,,2013-01-10 04:52:00,
2013-01-09 23:03:00,39.0,34.0,30.35,East,96,0.0,3.0,82,0.00,,,0.00,,2013-01-10 05:03:00,
2013-01-09 23:12:00,39.0,34.0,30.35,East,96,0.0,3.0,82,0.00,,,0.00,,2013-01-10 05:12:00,
2013-01-09 23:22:00,39.0,34.0,30.35,East,96,0.0,3.0,81,0.00,,,0.00,,2013-01-10 05:22:00,
2013-01-09 23:33:00,39.0,33.0,30.35,ENE,75,1.0,2.0,80,0.00,,,0.00,,2013-01-10 05:33:00,
2013-01-09 23:42:00,39.0,33.0,30.35,ENE,75,1.0,2.0,80,0.00,,,0.00,,2013-01-10 05:42:00,
2013-01-09 23:53:00,39.0,33.0,30.35,East,89,0.0,3.0,80,0.00,,,0.00,,2013-01-10 05:53:00,